GalileoSat-14

operational
NORAD ID: 41549 Int'l Des: 2016-030 Owner: GSAEU Country: I-EU Constellation: Galileo
MEOCIRCULAR

关于 GalileoSat-14

正在加载描述...

实时位置

正在加载3D地球...

即将过境

高度历史

Altitude vs Time

uPlot chart will show altitude changes over time

两行轨道根数

1 41549U 16030A 25298.16252752 .00000003 00000-0 00000+0 0 9991
2 41549 55.1723 228.1593 0003571 348.0423 11.9624 1.70473000 58668
Epoch: Oct 25, 2025 • Age: 20 hours

当前状态

高度 23232.5 km
速度 3.67 km/s
星下点 13.08°N, 1.67°W
发射日期 May 24, 2016
运行时间 9.4 years
类型 navigation

技术详情

分类 Payload
质量 733.00 kg
干质量 660.00 kg
总质量 733.00 kg
长度 2.70 m
直径 1.60 m
跨度 14.50 m
形状 Box+2 pan
制造商 OHB
平台类型 GalileoSat
阶段状态 In Orbit
所有者/国家 GSAEU/I-EU

大型星座

Loading constellations...